Погода в Вистино

Россия / Санкт-Петербург и Ленинградская область     59°46′25″N   28°28′20″E
темп.,
°C
ветер,
м/с
пор.,
м/с
влажн.,
%
обл.,
%
осадки,
мм/ч
давл.,
гПа
погр.,
м
1 августа, вс
вс100:00+16юз499315 0.2 1002363
03:00+15ююз489515 0.3 1002317
06:00+15ююз389391 0.1 1002246
09:00+15ююв369888 5.8 1001297
12:00+20юз5870100 2.3 1001904
15:00+22юз595546 2.9 10011518
18:00+19юз6108333 0.9 10011002
21:00+17зюз510903 1.8 1003608
2 августа, пн
пн200:00+16зюз379387 0.3 1004347
03:00+15юз4791100 0.4 1004331
06:00+14ююз3791100 0.0 1004267
09:00+17ююз4778100 0.0 1004603
12:00+20юз3561100 0.2 10031176
15:00+21с2262100 0.7 1002783
18:00+17юв2486100 1.7 1001156
21:00+16юз238693 3.2 100157
3 августа, вт
вт300:00+15юз2491100 0.7 100095
03:00+15зсз368963 3.1 1001260
06:00+15зюз58871 0.3 1001475
09:00+16зюз688234 0.5 1002899
12:00+15з6978100 0.3 10041091
15:00+16зсз71074100 0.9 10061143
18:00+17зсз611575 0.3 10071762
21:00+15з366525 0.3 1009338
4 августа, ср
ср400:00+15з356751 0.0 1010207
03:00+15з35675 0.1 1011208
06:00+14з127114 0.1 1012200
09:00+18зюз33538 0.2 1014976
12:00+19з435323 0.0 10151366
15:00+19зсз444949 0.0 10161264
18:00+18сз224794 0.0 1016554
21:00+15ююз006198 0.0 101641
5 августа, чт
чт500:00+14ююв226499 0.0 101645
03:00+14юв2368100 0.0 101693
06:00+13ю227146 0.0 101652
09:00+18юв235311 0.0 1016344
12:00+21юв34476 0.0 1015977
15:00+21всв2456100 0.0 1014203
18:00+22вюв344751 0.0 10131269
21:00+17юв24665 0.0 101368